RYL011 RPLL-RPVE

Flight info

Callsign RYL011
Flight time N/A
Altitude 25000
Route RDVXVERDE/06 VERDE W24 TAPER TAPER7B
Aircraft A20N/M-SDE2E3FGHIRWXY/LB1

Departure

Time 2026-04-30 14:04
Airport Ninoy Aquino International Airport (RPLL)

Arrival

Time N/A
Airport Godofredo P. Ramos Airport (RPVE)
Time Latitude Longitude Altitude Speed Heading
2026-04-30 13:41 14.50820 121.01406 84 ft 0 kts 223°
2026-04-30 13:44 14.50814 121.01401 84 ft 3 kts 223°
2026-04-30 13:44 14.50796 121.01382 84 ft 3 kts 226°
2026-04-30 13:44 14.50778 121.01360 84 ft 3 kts 235°
2026-04-30 13:45 14.50730 121.01316 84 ft 5 kts 201°
2026-04-30 13:45 14.50691 121.01315 83 ft 6 kts 186°
2026-04-30 13:45 14.50655 121.01290 84 ft 6 kts 233°
2026-04-30 13:46 14.50629 121.01247 83 ft 7 kts 240°
2026-04-30 13:46 14.50601 121.01196 83 ft 8 kts 240°
2026-04-30 13:46 14.50571 121.01141 83 ft 9 kts 240°
2026-04-30 13:46 14.50537 121.01080 84 ft 10 kts 240°
2026-04-30 13:47 14.50499 121.01012 84 ft 15 kts 240°
2026-04-30 13:47 14.50446 121.00917 83 ft 12 kts 240°
2026-04-30 13:47 14.50403 121.00838 84 ft 13 kts 239°
2026-04-30 13:47 14.50357 121.00755 84 ft 13 kts 240°
2026-04-30 13:48 14.50309 121.00671 84 ft 13 kts 240°
2026-04-30 13:48 14.50262 121.00586 84 ft 12 kts 240°
2026-04-30 13:48 14.50230 121.00527 83 ft 9 kts 240°
2026-04-30 13:48 14.50196 121.00467 84 ft 10 kts 240°
2026-04-30 13:49 14.50160 121.00402 84 ft 10 kts 240°
2026-04-30 13:49 14.50121 121.00333 83 ft 11 kts 236°
2026-04-30 13:49 14.50081 121.00262 83 ft 11 kts 240°
2026-04-30 13:49 14.50039 121.00186 84 ft 12 kts 240°
2026-04-30 13:50 14.49998 121.00111 84 ft 4 kts 240°
2026-04-30 13:50 14.49990 121.00098 83 ft 0 kts 240°
2026-04-30 13:50 14.49986 121.00089 83 ft 4 kts 240°
2026-04-30 13:51 14.49969 121.00059 84 ft 0 kts 240°
2026-04-30 13:57 14.49965 121.00051 84 ft 2 kts 240°
2026-04-30 13:58 14.49951 121.00026 84 ft 4 kts 240°
2026-04-30 13:58 14.49886 120.99967 84 ft 4 kts 172°
2026-04-30 13:58 14.49883 120.99968 84 ft 0 kts 172°
2026-04-30 13:59 14.49878 120.99968 83 ft 1 kts 171°
2026-04-30 13:59 14.49876 120.99969 83 ft 0 kts 170°
2026-04-30 14:01 14.49872 120.99970 84 ft 1 kts 160°
2026-04-30 14:01 14.49857 120.99976 84 ft 8 kts 156°
2026-04-30 14:01 14.49808 121.00017 84 ft 7 kts 114°
2026-04-30 14:01 14.49817 121.00073 84 ft 8 kts 64°
2026-04-30 14:02 14.49829 121.00095 84 ft 0 kts 60°
2026-04-30 14:03 14.49830 121.00096 84 ft 1 kts 60°
2026-04-30 14:03 14.49928 121.00275 84 ft 64 kts 60°
2026-04-30 14:04 14.50262 121.00879 84 ft 127 kts 60°
2026-04-30 14:04 14.50793 121.01832 148 ft 171 kts 62°
2026-04-30 14:04 14.51366 121.02885 741 ft 171 kts 62°
2026-04-30 14:04 14.51960 121.03958 1376 ft 173 kts 63°
2026-04-30 14:05 14.52554 121.05031 1978 ft 174 kts 63°
2026-04-30 14:05 14.53149 121.06105 2516 ft 175 kts 63°
2026-04-30 14:05 14.53760 121.07204 3057 ft 177 kts 63°
2026-04-30 14:05 14.54386 121.08333 3473 ft 188 kts 63°
2026-04-30 14:06 14.55054 121.09541 3805 ft 204 kts 63°
2026-04-30 14:06 14.56416 121.12383 4430 ft 240 kts 84°
2026-04-30 14:07 14.55204 121.15640 5217 ft 267 kts 137°
2026-04-30 14:07 14.53852 121.16994 5892 ft 275 kts 139°
2026-04-30 14:07 14.52483 121.18356 6651 ft 280 kts 138°
2026-04-30 14:08 14.49668 121.21225 8152 ft 291 kts 137°
2026-04-30 14:08 14.48178 121.22636 8863 ft 294 kts 149°
2026-04-30 14:08 14.44327 121.23408 10229 ft 292 kts 197°
2026-04-30 14:09 14.42462 121.22531 10678 ft 299 kts 220°
2026-04-30 14:09 14.40958 121.20985 11027 ft 314 kts 231°
2026-04-30 14:09 14.37941 121.17414 11644 ft 348 kts 231°
2026-04-30 14:10 14.36290 121.15489 11933 ft 365 kts 231°
2026-04-30 14:10 14.34571 121.13508 12283 ft 378 kts 230°
2026-04-30 14:10 14.32818 121.11500 12908 ft 382 kts 230°
2026-04-30 14:10 14.31035 121.09464 13592 ft 384 kts 230°
2026-04-30 14:11 14.29173 121.07450 14111 ft 392 kts 226°
2026-04-30 14:11 14.27123 121.05559 14680 ft 398 kts 221°
2026-04-30 14:11 14.24919 121.03851 15276 ft 403 kts 217°
2026-04-30 14:11 14.22589 121.02198 15871 ft 407 kts 216°
2026-04-30 14:12 14.20233 121.00553 16447 ft 411 kts 216°
2026-04-30 14:12 14.17881 120.98911 17013 ft 414 kts 216°
2026-04-30 14:12 14.15468 120.97221 17582 ft 418 kts 216°